Sauk Centre, MN

11:15 PM CST on December 15, 2019 (GMT -0600)
Sauk Centre

Weather History for KD39 - October, 2019

Change the Weather History Date:

Saturday, October 12, 2019

  Actual Average (KGHW) Record (KGHW)
Temperature  
Mean Temperature 32 °F -  
Max Temperature 34 °F 59 °F 83 °F (1956)
Min Temperature 31 °F 35 °F 21 °F (2006)
Degree Days  
Heating Degree Days 32    
Moisture  
Dew Point 31 °F    
Average Humidity 92    
Maximum Humidity 100    
Minimum Humidity 85    
Precipitation  
Precipitation 0.00 in - - ()
Sea Level Pressure  
Sea Level Pressure 29.53 in    
Wind  
Wind Speed 18 mph ()    
Max Wind Speed 26 mph    
Max Gust Speed 36 mph    
Visibility 6.6 miles    
Events Snow    
Averages and records for this station are not official NWS values.
T = Trace of Precipitation, MM = Missing Value Source: Averaged Metar Reports

Daily Weather History Graph

Daily Weather History Graph

Search for Another Location

Airport or City:

Astronomy

Oct. 12, 2019 Rise Set
Actual Time 7:32 AM CDT 6:39 PM CDT
Civil Twilight 7:02 AM CDT 7:09 PM CDT
Nautical Twilight 6:27 AM CDT 7:43 PM CDT
Astronomical Twilight 5:53 AM CDT 8:18 PM CDT
Moon 6:41 PM CDT (10/12) 6:02 AM CDT (10/12)
Length of Visible Light 12h 07m
Length of Day
11h 07m
Waxing Gibbous, 99% of the Moon is Illuminated
Oct 12
Waxing Gibbous
Oct 13
Full
Oct 21
Last Quarter
Oct 27
New
Nov 4
First Quarter

Hourly Weather History & Observations

Time (CDT) Temp. Windchill Dew Point Humidity Pressure Visibility Wind Dir Wind Speed Gust Speed Precip Events Conditions
12:15 AM 32.0 °F 19.2 °F 28.6 °F 87% 29.57 in 10.0 mi WSW 23.0 mph 31.1 mph N/A Snow Light Snow
12:16 AM 32.0 °F 18.9 °F 28.6 °F 87% 29.57 in 10.0 mi WSW 24.2 mph 31.1 mph N/A Snow Light Snow
12:35 AM 32.0 °F 19.2 °F 28.2 °F 86% 29.57 in 10.0 mi WSW 23.0 mph 32.2 mph N/A Snow Light Snow
12:39 AM 32.0 °F 19.2 °F 28.2 °F 86% 29.56 in 10.0 mi WSW 23.0 mph 35.7 mph N/A Snow Light Snow
12:57 AM 32.0 °F 19.2 °F 28.4 °F 87% 29.56 in 7.0 mi WSW 23.0 mph 34.5 mph N/A Snow Light Snow
1:15 AM 32.0 °F 19.5 °F 29.1 °F 89% 29.55 in 4.0 mi WSW 21.9 mph 31.1 mph N/A Snow Light Snow
1:35 AM 32.0 °F 20.5 °F 28.9 °F 88% 29.56 in 10.0 mi WSW 18.4 mph 29.9 mph N/A Snow Light Snow
1:36 AM 32.0 °F 19.8 °F 28.9 °F 88% 29.55 in 10.0 mi WSW 20.7 mph 29.9 mph N/A Snow Light Snow
1:55 AM 32.0 °F 19.8 °F 28.6 °F 87% 29.55 in 10.0 mi WSW 20.7 mph 29.9 mph N/A Snow Light Snow
1:59 AM 32.0 °F 19.5 °F 28.4 °F 87% 29.55 in 10.0 mi WSW 21.9 mph 29.9 mph N/A Snow Light Snow
2:17 AM 32.0 °F 20.1 °F 28.9 °F 88% 29.54 in 7.0 mi WSW 19.6 mph 26.5 mph N/A Snow Light Snow
2:35 AM 32.0 °F 20.8 °F 29.1 °F 89% 29.54 in 7.0 mi SW 17.3 mph 27.6 mph N/A Snow Light Snow
2:55 AM 31.8 °F 19.6 °F 29.7 °F 92% 29.53 in 4.0 mi WSW 20.7 mph 32.2 mph N/A Snow Light Snow
2:56 AM 32.0 °F 19.8 °F 29.5 °F 90% 29.53 in 4.0 mi SW 20.7 mph 32.2 mph N/A Snow Light Snow
3:15 AM 32.0 °F 20.1 °F 29.5 °F 90% 29.52 in 2.5 mi WSW 19.6 mph 26.5 mph N/A Snow Light Snow
3:39 AM 31.6 °F 20.4 °F 30.2 °F 94% 29.52 in 2.0 mi SW 17.3 mph 26.5 mph N/A Snow Light Snow
3:57 AM 31.3 °F 20.3 °F 30.2 °F 96% 29.51 in 2.5 mi SW 16.1 mph 21.9 mph N/A Snow Light Snow
4:16 AM 31.6 °F 20.0 °F 30.0 °F 94% 29.51 in 4.0 mi SW 18.4 mph 26.5 mph N/A Snow Light Snow
4:35 AM 31.6 °F 19.7 °F 30.2 °F 94% 29.50 in 2.0 mi SW 19.6 mph 25.3 mph N/A Snow Light Snow
4:36 AM 31.6 °F 19.7 °F 30.2 °F 94% 29.50 in 2.0 mi SW 19.6 mph 26.5 mph N/A Snow Light Snow
4:55 AM 31.6 °F 19.7 °F 30.2 °F 94% 29.50 in 3.0 mi WSW 19.6 mph 27.6 mph N/A Snow Light Snow
4:59 AM 31.6 °F 19.3 °F 30.0 °F 94% 29.50 in 4.0 mi WSW 20.7 mph 27.6 mph N/A Snow Light Snow
5:17 AM 32.0 °F 21.2 °F 29.5 °F 90% 29.50 in 10.0 mi WSW 16.1 mph 27.6 mph N/A   Overcast
5:36 AM 32.0 °F 19.5 °F 29.1 °F 89% 29.50 in 10.0 mi WSW 21.9 mph 27.6 mph N/A   Overcast
5:55 AM 31.6 °F 21.6 °F 30.0 °F 94% 29.50 in 2.0 mi SW 13.8 mph 24.2 mph N/A Snow Light Snow
5:56 AM 31.6 °F 21.6 °F 30.0 °F 94% 29.50 in 2.0 mi WSW 13.8 mph 21.9 mph N/A Snow Light Snow
6:15 AM 31.5 °F 20.5 °F 30.0 °F 94% 29.49 in 2.5 mi WSW 16.1 mph 24.2 mph N/A Snow Light Snow
6:19 AM 31.5 °F 19.8 °F 30.0 °F 94% 29.49 in 3.0 mi WSW 18.4 mph 28.8 mph N/A Snow Light Snow
6:37 AM 31.8 °F 19.9 °F 29.8 °F 92% 29.49 in 7.0 mi WSW 19.6 mph 24.2 mph N/A Snow Light Snow
6:55 AM 32.0 °F 21.2 °F 29.7 °F 91% 29.49 in 10.0 mi WSW 16.1 mph 26.5 mph N/A Snow Light Snow
7:15 AM 32.0 °F 22.1 °F 29.5 °F 90% 29.49 in 7.0 mi WSW 13.8 mph 25.3 mph N/A Snow Light Snow
7:16 AM 32.0 °F 21.2 °F 29.7 °F 91% 29.49 in 7.0 mi WSW 16.1 mph 25.3 mph N/A Snow Light Snow
7:35 AM 32.0 °F 20.8 °F 29.1 °F 89% 29.49 in 10.0 mi WSW 17.3 mph 24.2 mph N/A   Overcast
7:58 AM 32.0 °F 20.1 °F 29.3 °F 90% 29.48 in 10.0 mi WSW 19.6 mph 27.6 mph N/A   Overcast
8:16 AM 32.0 °F 20.1 °F 28.9 °F 88% 29.48 in 10.0 mi WSW 19.6 mph 27.6 mph N/A   Overcast
8:36 AM 32.0 °F 20.5 °F 28.9 °F 88% 29.47 in 10.0 mi WSW 18.4 mph 26.5 mph N/A   Overcast
8:55 AM 32.2 °F 19.4 °F 29.3 °F 89% 29.47 in 10.0 mi WSW 23.0 mph 28.8 mph N/A   Overcast
8:56 AM 32.2 °F 20.0 °F 29.3 °F 89% 29.47 in 10.0 mi WSW 20.7 mph 28.8 mph N/A   Overcast
9:15 AM 32.5 °F 20.8 °F 29.7 °F 89% 29.46 in 10.0 mi WSW 19.6 mph 26.5 mph N/A Snow Light Snow
9:37 AM 32.4 °F 20.3 °F 29.3 °F 88% 29.46 in 10.0 mi WSW 20.7 mph 27.6 mph N/A   Overcast
9:56 AM 32.5 °F 20.8 °F 29.3 °F 88% 29.46 in 10.0 mi WSW 19.6 mph 27.6 mph N/A   Overcast
10:15 AM 32.9 °F 21.3 °F 29.7 °F 88% 29.47 in 7.0 mi WSW 19.6 mph 26.5 mph N/A   Overcast
10:16 AM 32.7 °F 21.1 °F 29.7 °F 88% 29.47 in 5.0 mi WSW 19.6 mph 26.5 mph N/A   Overcast
10:35 AM 32.5 °F 21.9 °F 30.0 °F 90% 29.47 in 5.0 mi WSW 16.1 mph 25.3 mph N/A Snow Light Snow
10:36 AM 32.5 °F 21.9 °F 30.0 °F 90% 29.47 in 5.0 mi WSW 16.1 mph 25.3 mph N/A Snow Light Snow
10:58 AM 32.9 °F 21.6 °F 30.0 °F 89% 29.47 in 4.0 mi WSW 18.4 mph 29.9 mph N/A Snow Light Snow
11:16 AM 33.1 °F 21.9 °F 30.2 °F 89% 29.47 in 7.0 mi WSW 18.4 mph 27.6 mph N/A Snow Light Snow
11:55 AM 33.4 °F 20.8 °F 30.7 °F 90% 29.47 in 7.0 mi WSW 24.2 mph 32.2 mph N/A   Overcast
11:56 AM 33.4 °F 21.7 °F 30.7 °F 90% 29.47 in 7.0 mi WSW 20.7 mph 32.2 mph N/A   Overcast
12:15 PM 33.4 °F 22.3 °F 30.7 °F 90% 29.48 in 7.0 mi WSW 18.4 mph 27.6 mph N/A   Overcast
12:38 PM 33.8 °F 22.2 °F 30.7 °F 89% 29.47 in 10.0 mi WSW 20.7 mph 32.2 mph N/A Snow Light Snow
12:56 PM 33.8 °F 21.9 °F 30.7 °F 89% 29.48 in 10.0 mi WSW 21.9 mph 28.8 mph N/A   Overcast
1:15 PM 33.8 °F 22.2 °F 30.7 °F 89% 29.48 in 7.0 mi West 20.7 mph 29.9 mph N/A   Overcast
1:16 PM 33.8 °F 22.2 °F 30.7 °F 89% 29.48 in 7.0 mi WSW 20.7 mph 29.9 mph N/A   Overcast
1:35 PM 34.7 °F 23.7 °F 30.9 °F 86% 29.48 in 10.0 mi West 19.6 mph 28.8 mph N/A   Overcast
1:36 PM 34.7 °F 24.3 °F 30.9 °F 86% 29.48 in 10.0 mi WSW 17.3 mph 28.8 mph N/A   Overcast
1:58 PM 34.7 °F 22.0 °F 30.6 °F 85% 29.48 in 10.0 mi West 26.5 mph 33.4 mph N/A   Overcast
2:16 PM 34.0 °F 21.5 °F 30.9 °F 89% 29.48 in 7.0 mi West 24.2 mph 32.2 mph N/A   Overcast
2:35 PM 34.3 °F 23.2 °F 31.5 °F 89% 29.49 in 7.0 mi West 19.6 mph 32.2 mph N/A   Overcast
2:36 PM 34.3 °F 23.5 °F 31.5 °F 89% 29.49 in 7.0 mi West 18.4 mph 32.2 mph N/A   Overcast
2:55 PM 34.2 °F 23.3 °F 31.1 °F 89% 29.49 in 7.0 mi West 18.4 mph 29.9 mph N/A   Overcast
2:56 PM 34.2 °F 21.5 °F 31.1 °F 89% 29.49 in 7.0 mi West 25.3 mph 33.4 mph N/A   Overcast
3:15 PM 33.8 °F 22.5 °F 32.0 °F 93% 29.50 in 5.0 mi West 19.6 mph 31.1 mph N/A   Overcast
3:20 PM 34.0 °F 22.4 °F 32.0 °F 92% 29.50 in 7.0 mi West 20.7 mph 27.6 mph N/A   Overcast
3:37 PM 34.3 °F 22.6 °F 32.4 °F 92% 29.50 in 4.0 mi West 21.9 mph 27.6 mph N/A Snow Light Snow
3:55 PM 34.5 °F 23.4 °F 32.0 °F 90% 29.51 in 10.0 mi West 19.6 mph 29.9 mph N/A   Overcast
4:15 PM 34.2 °F 22.6 °F 32.0 °F 92% 29.52 in 7.0 mi West 20.7 mph 25.3 mph N/A Snow Light Snow
4:16 PM 34.0 °F 22.4 °F 32.0 °F 92% 29.52 in 10.0 mi West 20.7 mph 25.3 mph N/A Snow Light Snow
4:35 PM 34.0 °F 22.7 °F 32.0 °F 92% 29.52 in 10.0 mi West 19.6 mph 28.8 mph N/A   Overcast
4:58 PM 33.3 °F 21.8 °F 32.0 °F 95% 29.52 in 2.5 mi West 19.6 mph 27.6 mph N/A Snow Light Snow
5:16 PM 33.1 °F 22.6 °F 32.0 °F 96% 29.53 in 3.0 mi West 16.1 mph 26.5 mph N/A Snow Light Snow
5:35 PM 33.1 °F 21.9 °F 32.0 °F 96% 29.55 in 3.0 mi West 18.4 mph 25.3 mph N/A Snow Light Snow
5:55 PM 32.9 °F 22.4 °F 32.0 °F 96% 29.55 in 4.0 mi West 16.1 mph 23.0 mph N/A Snow Light Snow
5:56 PM 32.9 °F 22.4 °F 32.0 °F 96% 29.55 in 4.0 mi West 16.1 mph 23.0 mph N/A Snow Light Snow
6:15 PM 32.9 °F 23.2 °F 32.0 °F 96% 29.56 in 3.0 mi West 13.8 mph 20.7 mph N/A Snow Light Snow
6:20 PM 32.9 °F 23.2 °F 32.0 °F 96% 29.56 in 3.0 mi West 13.8 mph 20.7 mph N/A Snow Light Snow
6:37 PM 32.5 °F 22.3 °F 32.0 °F 98% 29.57 in 1.8 mi West 15.0 mph - N/A Snow Light Snow
6:55 PM 32.2 °F 22.3 °F 32.0 °F 99% 29.58 in 3.0 mi West 13.8 mph 19.6 mph N/A Snow Light Snow
7:15 PM 32.0 °F 21.6 °F 32.0 °F 100% 29.58 in 3.0 mi West 15.0 mph 20.7 mph N/A Snow Light Snow
7:16 PM 32.0 °F 20.8 °F 32.0 °F 100% 29.58 in 3.0 mi West 17.3 mph 20.7 mph N/A Snow Light Snow
7:35 PM 32.2 °F 21.1 °F 31.8 °F 99% 29.59 in 4.0 mi West 17.3 mph 26.5 mph N/A Snow Light Snow
7:36 PM 32.2 °F 21.4 °F 31.8 °F 99% 29.59 in 4.0 mi West 16.1 mph 26.5 mph N/A Snow Light Snow
7:58 PM 32.4 °F 21.7 °F 32.0 °F 99% 29.60 in 7.0 mi West 16.1 mph 21.9 mph N/A Snow Light Snow
8:16 PM 32.2 °F 21.8 °F 31.8 °F 99% 29.60 in 7.0 mi West 15.0 mph 20.7 mph N/A Snow Light Snow
8:35 PM 32.2 °F 22.3 °F 31.8 °F 99% 29.60 in 5.0 mi West 13.8 mph - N/A Snow Light Snow
8:36 PM 32.2 °F 22.7 °F 31.8 °F 99% 29.60 in 5.0 mi West 12.7 mph - N/A Snow Light Snow
8:55 PM 32.2 °F 21.8 °F 31.6 °F 98% 29.61 in 7.0 mi West 15.0 mph 20.7 mph N/A Snow Light Snow
8:56 PM 32.2 °F 21.8 °F 31.6 °F 98% 29.61 in 5.0 mi West 15.0 mph 20.7 mph N/A Snow Light Snow
9:15 PM 32.4 °F 20.6 °F 31.6 °F 97% 29.60 in 7.0 mi West 19.6 mph 24.2 mph N/A Snow Light Snow
9:20 PM 32.4 °F 21.7 °F 31.5 °F 96% 29.61 in 10.0 mi West 16.1 mph 24.2 mph N/A Snow Light Snow
9:37 PM 32.4 °F 21.3 °F 31.5 °F 96% 29.61 in 7.0 mi West 17.3 mph 21.9 mph N/A Snow Light Snow
9:55 PM 32.2 °F 21.4 °F 31.1 °F 96% 29.61 in 7.0 mi West 16.1 mph 21.9 mph N/A Snow Light Snow
10:15 PM 32.0 °F 23.6 °F 31.1 °F 96% 29.62 in 4.0 mi West 10.4 mph 20.7 mph N/A Snow Light Snow
10:16 PM 32.0 °F 23.6 °F 31.3 °F 97% 29.62 in 4.0 mi West 10.4 mph 20.7 mph N/A Snow Light Snow
10:35 PM 32.0 °F 22.5 °F 31.3 °F 97% 29.61 in 7.0 mi West 12.7 mph 16.1 mph N/A Snow Light Snow
10:36 PM 32.0 °F 23.6 °F 31.1 °F 96% 29.61 in 7.0 mi West 10.4 mph 16.1 mph N/A Snow Light Snow
10:59 PM 32.2 °F 23.2 °F 31.1 °F 96% 29.61 in 7.0 mi West 11.5 mph - N/A Snow Light Snow
11:16 PM 32.0 °F 23.0 °F 31.5 °F 98% 29.61 in 7.0 mi West 11.5 mph 17.3 mph N/A Snow Light Snow
11:35 PM 32.0 °F 23.6 °F 31.5 °F 98% 29.61 in 10.0 mi West 10.4 mph - N/A Snow Light Snow
11:36 PM 32.0 °F 23.6 °F 31.5 °F 98% 29.61 in 10.0 mi West 10.4 mph - N/A Snow Light Snow
11:55 PM 32.0 °F 22.5 °F 31.1 °F 96% 29.61 in 10.0 mi WNW 12.7 mph - N/A Snow Light Snow
11:56 PM 32.0 °F 23.0 °F 31.1 °F 96% 29.61 in 10.0 mi WNW 11.5 mph - N/A Snow Light Snow